Weather History for KNDZ - November, 2011

Change the Weather History Date:

Monday, November 14, 2011

  Actual Average (KPNS) Record (KPNS)
Temperature  
Mean Temperature 71 °F 61 °F  
Max Temperature 79 °F 71 °F 83 °F (1955)
Min Temperature 63 °F 52 °F 30 °F (1969)
Degree Days  
Heating Degree Days 0 5  
Month to date heating degree days 57  
Since 1 July heating degree days 95  
Cooling Degree Days 6 1  
Month to date cooling degree days 30  
Year to date cooling degree days 2580  
Growing Degree Days 21 (Base 50)    
Moisture  
Dew Point 66 °F    
Average Humidity 84    
Maximum Humidity 96    
Minimum Humidity 65    
Precipitation  
Precipitation 0.00 in 0.16 in 4.79 in (1914)
Month to date precipitation 2.25  
Year to date precipitation 58.24  
Snow  
Snow 0.00 in 0.00 in 0.00 in (2002)
Month to date snowfall 0.0  
Since 1 July snowfall 0.0  
Snow Depth -    
Sea Level Pressure  
Sea Level Pressure 30.03 in    
Wind  
Wind Speed 8 mph (SSE)    
Max Wind Speed 16 mph    
Max Gust Speed 23 mph    
Visibility 10 miles    
Events Rain    
T = Trace of Precipitation, MM = Missing Value Source: NWS Daily Summary

Daily Weather History Graph

Daily Weather History Graph

Search for Another Location

Airport or City:

Trip Planner

Search our weather history database for the weather conditions in past years. The results will help you decide how hot, cold, wet, or windy it might be!

Date:

Astronomy

Nov. 14, 2011 Rise Set
Actual Time 6:13 AM CST 4:51 PM CST
Civil Twilight 5:47 AM CST 5:16 PM CST
Nautical Twilight 5:18 AM CST 5:45 PM CST
Astronomical Twilight 4:50 AM CST 6:14 PM CST
Moon 8:02 PM CST (11/14) 9:26 AM CST (11/14)
Length of Visible Light 11h 28m
Length of Day
10h 37m
Waning Gibbous, 86% of the Moon is Illuminated
Nov 14
Waning Gibbous
Nov 18
Last Quarter
Nov 25
New
Dec 2
First Quarter
Dec 10
Full

Hourly Weather History & Observations

Time (CST) Temp. Dew Point Humidity Pressure Visibility Wind Dir Wind Speed Gust Speed Precip Events Conditions
12:56 AM 68.0 °F 63.0 °F 84% 30.09 in 10.0 mi SSE 8.1 mph - N/A   Overcast
1:56 AM 66.9 °F 62.1 °F 84% 30.08 in 10.0 mi SE 9.2 mph - N/A   Mostly Cloudy
2:56 AM 63.0 °F 61.0 °F 93% 30.07 in 10.0 mi ESE 3.5 mph - N/A   Scattered Clouds
3:56 AM 63.0 °F 61.0 °F 93% 30.03 in 10.0 mi ESE 3.5 mph - N/A   Partly Cloudy
4:56 AM 64.9 °F 63.0 °F 93% 30.04 in 10.0 mi SE 4.6 mph - N/A   Overcast
5:56 AM 64.9 °F 63.0 °F 93% 30.04 in 10.0 mi SE 5.8 mph - N/A   Overcast
6:56 AM 66.9 °F 64.0 °F 90% 30.05 in 10.0 mi ESE 12.7 mph - N/A   Overcast
7:49 AM 69.8 °F 64.4 °F 83% 30.10 in 10.0 mi SE 6.9 mph - N/A   Overcast
7:56 AM 70.0 °F 64.9 °F 84% 30.06 in 10.0 mi SE 8.1 mph - N/A   Overcast
8:26 AM 69.8 °F 66.2 °F 88% 30.11 in 10.0 mi SSE 8.1 mph - 0.00 in   Overcast
8:51 AM 71.6 °F 66.2 °F 83% 30.11 in 10.0 mi SSE 9.2 mph - 0.00 in   Overcast
8:56 AM 71.1 °F 66.9 °F 87% 30.07 in 10.0 mi SE 10.4 mph - 0.00 in   Overcast
9:21 AM 71.6 °F 66.2 °F 83% 30.11 in 10.0 mi SSE 10.4 mph - N/A   Overcast
9:56 AM 73.9 °F 66.9 °F 79% 30.07 in 10.0 mi SSE 10.4 mph - N/A   Overcast
10:56 AM 75.9 °F 66.9 °F 74% 30.05 in 10.0 mi SE 13.8 mph - N/A   Overcast
11:56 AM 73.9 °F 66.9 °F 79% 30.03 in 10.0 mi South 11.5 mph 21.9 mph 0.00 in Rain Light Rain
12:46 PM 77.0 °F 68.0 °F 74% 30.04 in 10.0 mi South 10.4 mph 19.6 mph 0.00 in   Mostly Cloudy
12:56 PM 79.0 °F 66.9 °F 66% 29.99 in 10.0 mi South 12.7 mph 19.6 mph 0.00 in   Mostly Cloudy
1:56 PM 78.1 °F 66.9 °F 68% 29.97 in 10.0 mi South 10.4 mph 21.9 mph N/A   Mostly Cloudy
2:21 PM 78.8 °F 66.2 °F 65% 30.01 in 10.0 mi South 16.1 mph 23.0 mph N/A   Mostly Cloudy
2:34 PM 77.0 °F 66.2 °F 69% 30.00 in 10.0 mi South 12.7 mph 20.7 mph N/A   Mostly Cloudy
2:56 PM 77.0 °F 68.0 °F 74% 29.96 in 10.0 mi SSE 11.5 mph - N/A   Mostly Cloudy
3:56 PM 75.0 °F 68.0 °F 79% 29.96 in 10.0 mi SSE 11.5 mph - N/A   Mostly Cloudy
4:56 PM 73.0 °F 66.9 °F 81% 29.97 in 10.0 mi SSE 8.1 mph - N/A   Overcast
5:11 PM 73.4 °F 66.2 °F 78% 30.01 in 10.0 mi SSE 6.9 mph - N/A   Overcast
5:56 PM 72.0 °F 66.9 °F 84% 29.98 in 10.0 mi SSE 5.8 mph - N/A   Overcast
6:41 PM 71.6 °F 66.2 °F 83% 30.02 in 10.0 mi SE 5.8 mph - N/A   Overcast
6:56 PM 70.0 °F 66.9 °F 90% 29.99 in 10.0 mi SSE 5.8 mph - N/A   Overcast
7:37 PM 69.8 °F 66.2 °F 88% 30.02 in 10.0 mi SSE 9.2 mph - N/A   Mostly Cloudy
7:54 PM 69.8 °F 66.2 °F 88% 30.03 in 10.0 mi South 5.8 mph - N/A   Scattered Clouds
7:56 PM 69.1 °F 66.9 °F 93% 29.99 in 10.0 mi South 5.8 mph - N/A   Partly Cloudy
8:16 PM 69.8 °F 66.2 °F 88% 30.03 in 10.0 mi South 4.6 mph - N/A   Mostly Cloudy
8:56 PM 69.1 °F 66.9 °F 93% 30.00 in 10.0 mi SSE 3.5 mph - N/A   Overcast
9:56 PM 69.1 °F 66.9 °F 93% 30.00 in 10.0 mi SSE 4.6 mph - N/A   Overcast
10:56 PM 69.1 °F 66.9 °F 93% 29.99 in 10.0 mi SSE 4.6 mph - N/A   Overcast
11:40 PM 68.0 °F 66.2 °F 94% 30.02 in 9.0 mi SE 3.5 mph - N/A   Mostly Cloudy
11:56 PM 68.0 °F 66.9 °F 96% 29.98 in 9.0 mi SE 3.5 mph - N/A   Mostly Cloudy